Time,TemperatureF,DewpointF,PressureIn,WindDirection,WindDirectionDegrees,WindSpeedMPH,WindSpeedGustMPH,Humidity,HourlyPrecipIn,Conditions,Clouds,dailyrainin,SoftwareType,DateUTC
2013-02-09 00:11:00,34.0,25.0,-100.00,WSW,242,12.0,-999.0,70,-99.99,,,0.00,,2013-02-09 07:11:00,
2013-02-09 00:21:00,34.0,25.0,-100.00,WSW,242,12.0,-999.0,70,-99.99,,,0.00,,2013-02-09 07:21:00,
2013-02-09 00:31:00,34.0,25.0,-100.00,WSW,242,12.0,-999.0,70,-99.99,,,0.00,,2013-02-09 07:31:00,
2013-02-09 00:42:00,34.0,25.0,-100.00,WSW,242,12.0,-999.0,70,-99.99,,,0.00,,2013-02-09 07:42:00,
2013-02-09 00:51:00,34.0,27.0,-100.00,WSW,252,15.0,21.0,75,0.00,,,0.00,,2013-02-09 07:51:00,
2013-02-09 01:11:00,34.0,27.0,-100.00,WSW,252,15.0,21.0,75,0.00,,,0.00,,2013-02-09 08:11:00,
2013-02-09 01:21:00,34.0,27.0,-100.00,WSW,252,15.0,21.0,75,0.00,,,0.00,,2013-02-09 08:21:00,
2013-02-09 01:31:00,34.0,27.0,-100.00,WSW,252,15.0,21.0,75,0.00,,,0.00,,2013-02-09 08:31:00,
2013-02-09 01:41:00,34.0,27.0,-100.00,WSW,252,15.0,21.0,75,0.00,,,0.00,,2013-02-09 08:41:00,
2013-02-09 01:51:00,34.0,26.0,-100.00,SW,224,6.0,15.0,73,0.00,,,0.00,,2013-02-09 08:51:00,
2013-02-09 02:11:00,34.0,26.0,-100.00,SW,224,6.0,15.0,73,0.00,,,0.00,,2013-02-09 09:11:00,
2013-02-09 02:21:00,34.0,26.0,-100.00,SW,224,6.0,15.0,73,0.00,,,0.00,,2013-02-09 09:21:00,
2013-02-09 02:31:00,34.0,26.0,-100.00,SW,224,6.0,15.0,73,0.00,,,0.00,,2013-02-09 09:31:00,
2013-02-09 02:41:00,34.0,26.0,-100.00,SW,224,6.0,15.0,73,0.00,,,0.00,,2013-02-09 09:41:00,
2013-02-09 02:51:00,32.0,27.0,-100.00,SE,133,6.0,14.0,80,0.00,,,0.00,,2013-02-09 09:51:00,
2013-02-09 03:21:00,32.0,27.0,-100.00,SE,133,6.0,14.0,80,0.00,,,0.00,,2013-02-09 10:21:00,
2013-02-09 03:31:00,32.0,27.0,-100.00,SE,133,6.0,14.0,80,0.00,,,0.00,,2013-02-09 10:31:00,
2013-02-09 03:41:00,32.0,27.0,-100.00,SE,133,6.0,14.0,80,0.00,,,0.00,,2013-02-09 10:41:00,
2013-02-09 03:51:00,31.0,26.0,-100.00,SW,234,8.0,14.0,81,0.00,,,0.00,,2013-02-09 10:51:00,
2013-02-09 04:11:00,31.0,26.0,-100.00,SW,234,8.0,14.0,81,0.00,,,0.00,,2013-02-09 11:11:00,
2013-02-09 04:21:00,31.0,26.0,-100.00,SW,234,8.0,14.0,81,0.00,,,0.00,,2013-02-09 11:21:00,
2013-02-09 04:31:00,31.0,26.0,-100.00,SW,234,8.0,14.0,81,0.00,,,0.00,,2013-02-09 11:31:00,
2013-02-09 04:41:00,31.0,26.0,-100.00,SW,234,8.0,14.0,81,0.00,,,0.00,,2013-02-09 11:41:00,
2013-02-09 04:51:00,29.0,28.0,-100.00,WNW,302,7.0,13.0,96,0.00,,,0.00,,2013-02-09 11:51:00,
2013-02-09 05:11:00,29.0,28.0,-100.00,WNW,302,7.0,13.0,96,0.00,,,0.00,,2013-02-09 12:11:00,
2013-02-09 05:21:00,29.0,28.0,-100.00,WNW,302,7.0,13.0,96,0.00,,,0.00,,2013-02-09 12:21:00,
2013-02-09 05:32:00,29.0,28.0,-100.00,WNW,302,7.0,13.0,96,0.00,,,0.00,,2013-02-09 12:32:00,
2013-02-09 05:42:00,29.0,28.0,-100.00,WNW,302,7.0,13.0,96,0.00,,,0.00,,2013-02-09 12:42:00,
2013-02-09 05:51:00,28.0,26.0,-100.00,WSW,257,9.0,18.0,93,0.00,,,0.00,,2013-02-09 12:51:00,
2013-02-09 06:21:00,28.0,26.0,-100.00,WSW,257,9.0,18.0,93,0.00,,,0.00,,2013-02-09 13:21:00,
2013-02-09 06:32:00,28.0,26.0,-100.00,WSW,257,9.0,18.0,93,0.00,,,0.00,,2013-02-09 13:32:00,
2013-02-09 06:42:00,28.0,26.0,-100.00,WSW,257,9.0,18.0,93,0.00,,,0.00,,2013-02-09 13:42:00,
2013-02-09 06:51:00,28.0,26.0,-100.00,ESE,107,4.0,12.0,93,0.00,,,0.00,,2013-02-09 13:51:00,
2013-02-09 07:11:00,28.0,26.0,-100.00,ESE,107,4.0,12.0,93,0.00,,,0.00,,2013-02-09 14:11:00,
2013-02-09 07:21:00,28.0,26.0,-100.00,ESE,107,4.0,12.0,93,0.00,,,0.00,,2013-02-09 14:21:00,
2013-02-09 07:31:00,28.0,26.0,-100.00,ESE,107,4.0,12.0,93,0.00,,,0.00,,2013-02-09 14:31:00,
2013-02-09 07:41:00,28.0,26.0,-100.00,ESE,107,4.0,12.0,93,0.00,,,0.00,,2013-02-09 14:41:00,
2013-02-09 07:51:00,27.0,25.0,-100.00,WNW,288,3.0,9.0,92,0.00,,,-99.99,,2013-02-09 14:51:00,
2013-02-09 08:11:00,27.0,25.0,-100.00,WNW,288,3.0,9.0,92,0.00,,,-99.99,,2013-02-09 15:11:00,
2013-02-09 08:21:00,27.0,25.0,-100.00,WNW,288,3.0,9.0,92,0.00,,,-99.99,,2013-02-09 15:21:00,
2013-02-09 08:31:00,27.0,25.0,-100.00,WNW,288,3.0,9.0,92,0.00,,,-99.99,,2013-02-09 15:31:00,
2013-02-09 08:41:00,27.0,25.0,-100.00,WNW,288,3.0,9.0,92,0.00,,,-99.99,,2013-02-09 15:41:00,
2013-02-09 08:51:00,28.0,26.0,-100.00,WNW,286,6.0,10.0,91,0.00,,,0.00,,2013-02-09 15:51:00,
2013-02-09 09:11:00,28.0,26.0,-100.00,WNW,286,6.0,10.0,91,0.00,,,0.00,,2013-02-09 16:11:00,
2013-02-09 09:22:00,28.0,26.0,-100.00,WNW,286,6.0,10.0,91,0.00,,,0.00,,2013-02-09 16:22:00,
2013-02-09 09:31:00,28.0,26.0,-100.00,WNW,286,6.0,10.0,91,0.00,,,0.00,,2013-02-09 16:31:00,
2013-02-09 09:41:00,28.0,26.0,-100.00,WNW,286,6.0,10.0,91,0.00,,,0.00,,2013-02-09 16:41:00,
2013-02-09 09:51:00,30.0,25.0,-100.00,WNW,291,5.0,8.0,80,0.00,,,-99.99,,2013-02-09 16:51:00,
2013-02-09 10:21:00,30.0,25.0,-100.00,WNW,291,5.0,8.0,80,0.00,,,-99.99,,2013-02-09 17:21:00,
2013-02-09 10:32:00,30.0,25.0,-100.00,WNW,291,5.0,8.0,80,0.00,,,-99.99,,2013-02-09 17:32:00,
2013-02-09 10:41:00,30.0,25.0,-100.00,WNW,291,5.0,8.0,80,0.00,,,-99.99,,2013-02-09 17:41:00,
2013-02-09 10:51:00,31.0,24.0,-100.00,West,274,9.0,14.0,74,0.01,,,0.01,,2013-02-09 17:51:00,
2013-02-09 11:12:00,31.0,24.0,-100.00,West,274,9.0,14.0,74,0.01,,,0.01,,2013-02-09 18:12:00,
2013-02-09 11:23:00,31.0,24.0,-100.00,West,274,9.0,14.0,74,0.01,,,0.01,,2013-02-09 18:23:00,
2013-02-09 11:31:00,31.0,24.0,-100.00,West,274,9.0,14.0,74,0.01,,,0.01,,2013-02-09 18:31:00,
2013-02-09 11:41:00,31.0,24.0,-100.00,West,274,9.0,14.0,74,0.01,,,0.01,,2013-02-09 18:41:00,
2013-02-09 11:51:00,31.0,22.0,-100.00,West,277,13.0,22.0,68,0.00,,,-99.99,,2013-02-09 18:51:00,
2013-02-09 12:11:00,31.0,22.0,-100.00,West,277,13.0,22.0,68,0.00,,,-99.99,,2013-02-09 19:11:00,
2013-02-09 12:22:00,31.0,22.0,-100.00,West,277,13.0,22.0,68,0.00,,,-99.99,,2013-02-09 19:22:00,
2013-02-09 12:31:00,31.0,22.0,-100.00,West,277,13.0,22.0,68,0.00,,,-99.99,,2013-02-09 19:31:00,
2013-02-09 12:41:00,31.0,22.0,-100.00,West,277,13.0,22.0,68,0.00,,,-99.99,,2013-02-09 19:41:00,
2013-02-09 12:51:00,30.0,23.0,-100.00,NNW,328,7.0,14.0,75,0.00,,,0.01,,2013-02-09 19:51:00,
2013-02-09 13:11:00,30.0,23.0,-100.00,NNW,328,7.0,14.0,75,0.00,,,0.01,,2013-02-09 20:11:00,
2013-02-09 13:21:00,30.0,23.0,-100.00,NNW,328,7.0,14.0,75,0.00,,,0.01,,2013-02-09 20:21:00,
2013-02-09 13:31:00,30.0,23.0,-100.00,NNW,328,7.0,14.0,75,0.00,,,0.01,,2013-02-09 20:31:00,
2013-02-09 13:41:00,30.0,23.0,-100.00,NNW,328,7.0,14.0,75,0.00,,,0.01,,2013-02-09 20:41:00,
2013-02-09 13:51:00,32.0,25.0,-100.00,NNE,12,5.0,9.0,75,0.00,,,0.01,,2013-02-09 20:51:00,
2013-02-09 14:11:00,32.0,25.0,-100.00,NNE,12,5.0,9.0,75,0.00,,,0.01,,2013-02-09 21:11:00,
2013-02-09 14:21:00,32.0,25.0,-100.00,NNE,12,5.0,9.0,75,0.00,,,0.01,,2013-02-09 21:21:00,
2013-02-09 14:31:00,32.0,25.0,-100.00,NNE,12,5.0,9.0,75,0.00,,,0.01,,2013-02-09 21:31:00,
2013-02-09 14:41:00,32.0,25.0,-100.00,NNE,12,5.0,9.0,75,0.00,,,0.01,,2013-02-09 21:41:00,
2013-02-09 14:51:00,32.0,23.0,-100.00,WNW,288,4.0,7.0,69,0.00,,,0.01,,2013-02-09 21:51:00,
2013-02-09 15:11:00,32.0,23.0,-100.00,WNW,288,4.0,7.0,69,0.00,,,0.01,,2013-02-09 22:11:00,
2013-02-09 15:21:00,32.0,23.0,-100.00,WNW,288,4.0,7.0,69,0.00,,,0.01,,2013-02-09 22:21:00,
2013-02-09 15:31:00,32.0,23.0,-100.00,WNW,288,4.0,7.0,69,0.00,,,0.01,,2013-02-09 22:31:00,
2013-02-09 15:41:00,32.0,23.0,-100.00,WNW,288,4.0,7.0,69,0.00,,,0.01,,2013-02-09 22:41:00,
2013-02-09 15:51:00,32.0,22.0,-100.00,NW,326,2.0,9.0,65,0.00,,,0.01,,2013-02-09 22:51:00,
2013-02-09 16:11:00,32.0,22.0,-100.00,NW,326,2.0,9.0,65,0.00,,,0.01,,2013-02-09 23:11:00,
2013-02-09 16:21:00,32.0,22.0,-100.00,NW,326,2.0,9.0,65,0.00,,,0.01,,2013-02-09 23:21:00,
2013-02-09 16:31:00,32.0,22.0,-100.00,NW,326,2.0,9.0,65,0.00,,,0.01,,2013-02-09 23:31:00,
2013-02-09 16:41:00,32.0,22.0,-100.00,NW,326,2.0,9.0,65,0.00,,,0.01,,2013-02-09 23:41:00,
2013-02-09 16:51:00,31.0,17.0,-100.00,NW,304,9.0,15.0,55,0.00,,,0.01,,2013-02-09 23:51:00,
2013-02-09 17:21:00,31.0,17.0,-100.00,NW,304,9.0,15.0,55,0.00,,,0.01,,2013-02-10 00:21:00,
2013-02-09 17:32:00,31.0,17.0,-100.00,NW,304,9.0,15.0,55,0.00,,,0.01,,2013-02-10 00:32:00,
2013-02-09 17:41:00,31.0,17.0,-100.00,NW,304,9.0,15.0,55,0.00,,,0.01,,2013-02-10 00:41:00,
2013-02-09 17:51:00,30.0,14.0,-100.00,NW,312,7.0,18.0,51,0.00,,,-99.99,,2013-02-10 00:51:00,
2013-02-09 18:12:00,30.0,14.0,-100.00,NW,312,7.0,18.0,51,0.00,,,-99.99,,2013-02-10 01:12:00,
2013-02-09 18:21:00,30.0,14.0,-100.00,NW,312,7.0,18.0,51,0.00,,,-99.99,,2013-02-10 01:21:00,
2013-02-09 18:31:00,30.0,14.0,-100.00,NW,312,7.0,18.0,51,0.00,,,-99.99,,2013-02-10 01:31:00,
2013-02-09 18:41:00,30.0,14.0,-100.00,NW,312,7.0,18.0,51,0.00,,,-99.99,,2013-02-10 01:41:00,
2013-02-09 18:51:00,27.0,14.0,-100.00,West,281,3.0,16.0,58,0.00,,,0.01,,2013-02-10 01:51:00,
2013-02-09 19:22:00,27.0,14.0,-100.00,West,281,3.0,16.0,58,0.00,,,0.01,,2013-02-10 02:22:00,
2013-02-09 19:31:00,27.0,14.0,-100.00,West,281,3.0,16.0,58,0.00,,,0.01,,2013-02-10 02:31:00,
2013-02-09 19:41:00,27.0,14.0,-100.00,West,281,3.0,16.0,58,0.00,,,0.01,,2013-02-10 02:41:00,
2013-02-09 19:51:00,27.0,11.0,-100.00,WNW,301,7.0,11.0,50,0.00,,,0.01,,2013-02-10 02:51:00,
2013-02-09 20:11:00,27.0,11.0,-100.00,WNW,301,7.0,11.0,50,0.00,,,0.01,,2013-02-10 03:11:00,
2013-02-09 20:21:00,27.0,11.0,-100.00,WNW,301,7.0,11.0,50,0.00,,,0.01,,2013-02-10 03:21:00,
2013-02-09 20:32:00,27.0,11.0,-100.00,WNW,301,7.0,11.0,50,0.00,,,0.01,,2013-02-10 03:32:00,
2013-02-09 20:41:00,27.0,11.0,-100.00,WNW,301,7.0,11.0,50,0.00,,,0.01,,2013-02-10 03:41:00,
2013-02-09 20:51:00,26.0,11.0,-100.00,WNW,289,8.0,13.0,52,0.00,,,0.01,,2013-02-10 03:51:00,
2013-02-09 21:11:00,26.0,11.0,-100.00,WNW,289,8.0,13.0,52,0.00,,,0.01,,2013-02-10 04:11:00,
2013-02-09 21:21:00,26.0,11.0,-100.00,WNW,289,8.0,13.0,52,0.00,,,0.01,,2013-02-10 04:21:00,
2013-02-09 21:32:00,26.0,11.0,-100.00,WNW,289,8.0,13.0,52,0.00,,,0.01,,2013-02-10 04:32:00,
2013-02-09 21:41:00,26.0,11.0,-100.00,WNW,289,8.0,13.0,52,0.00,,,0.01,,2013-02-10 04:41:00,
2013-02-09 21:51:00,24.0,12.0,-100.00,WNW,300,6.0,11.0,60,0.00,,,0.01,,2013-02-10 04:51:00,
2013-02-09 22:22:00,24.0,12.0,-100.00,WNW,300,6.0,11.0,60,0.00,,,0.01,,2013-02-10 05:22:00,
2013-02-09 22:31:00,24.0,12.0,-100.00,WNW,300,6.0,11.0,60,0.00,,,0.01,,2013-02-10 05:31:00,
2013-02-09 22:41:00,24.0,12.0,-100.00,WNW,300,6.0,11.0,60,0.00,,,0.01,,2013-02-10 05:41:00,
2013-02-09 22:51:00,24.0,11.0,-100.00,WNW,301,5.0,12.0,58,0.00,,,-99.99,,2013-02-10 05:51:00,
2013-02-09 23:21:00,24.0,11.0,-100.00,WNW,301,5.0,12.0,58,0.00,,,-99.99,,2013-02-10 06:21:00,
2013-02-09 23:32:00,24.0,11.0,-100.00,WNW,301,5.0,12.0,58,0.00,,,-99.99,,2013-02-10 06:32:00,
2013-02-09 23:42:00,24.0,11.0,-100.00,WNW,301,5.0,12.0,58,0.00,,,-99.99,,2013-02-10 06:42:00,
2013-02-09 23:51:00,21.0,11.0,-100.00,ENE,59,0.0,7.0,65,0.00,,,0.01,,2013-02-10 06:51:00,